Weather in Komysh-Zoria

Ukraine / Zaporizhia Region     47°19′37″N   36°41′35″E
temp.,
°C
wind,
m/s
gust,
m/s
humid.,
%
clouds,
%
prec.,
mm/h
press.,
hPa
HPBL,
m
16 june, wed
wed1600:00+16s229520 2.5 100936
03:00+16s119427 2.8 101011
06:00+17s2392100 0.1 1010106
09:00+19s3583100 0.7 1011367
12:00+22ssw3457100 0.6 1011967
15:00+24ssw34495 0.6 1011985
18:00+24ene01470 0.0 1010997
21:00+19n346698 0.3 101058
17 june, thu
thu1700:00+17ne61197100 4.1 1009459
03:00+17nne81784100 22.7 1009385
06:00+18ne71694100 6.1 1010698
09:00+21ene91384100 8.2 1010805
12:00+20e91288100 1.7 1012876
15:00+21e7108589 2.9 1012907
18:00+19e71094100 1.1 1013604
21:00+17ene4997100 2.7 1014327
18 june, fri
fri1800:00+16e6119759 0.3 1014343
03:00+17e61196100 0.8 1015597
06:00+16e6119538 0.4 1016458
09:00+20ese7877100 0.4 1018886
12:00+21e567031 0.0 1019920
15:00+21ene777015 0.2 10191033
18:00+20ene787954 0.8 1019888
21:00+17ne379418 0.8 1019185
19 june, sat
sat1900:00+17ene5118821 0.0 1019327
03:00+16ne612843 0.0 1018432
06:00+15ene612810 0.0 1018411
09:00+19e79730 0.0 1018588
12:00+24e79620 0.0 1018891
15:00+26e911520 0.0 10171390
18:00+24ene812660 0.0 10171297
21:00+21ene716707 0.0 1017546
20 june, sun
sun2000:00+21ene8185474 0.0 1016531
03:00+19ene8175714 0.1 1016443
06:00+18ene818605 0.0 1016440
09:00+22e81553100 0.0 1015628
12:00+23e7105395 0.4 1015843
15:00+26e911530 0.4 10141300
18:00+26e612610 0.0 10131194
21:00+21ne413780 0.0 1013289